Regional Weather Roundup
Issued by NWS

Home | Current Version | Previous Version | Text Only | Print | Product List | Glossary Off
Versions: 1 2 3 4 5 6 7 8 9 10 11 12 13 14 15 16 17 18 19 20 21 22 23 24 25 26 27 28 29 30 31 32 33 34 35 36 37 38 39 40 41 42 43 44 45 46 47 48 49 50

000
ASUS45 KBOU 190907
RWRCO

WEATHER ROUNDUP FOR COLORADO
NATIONAL WEATHER SERVICE DENVER/BOULDER CO
200 AM MST FRI DEC 19 2014

NOTE: "FAIR" INDICATES FEW OR NO CLOUDS BELOW 12000 FEET WITH NO
SIGNIFICANT WEATHER AND/OR OBSTRUCTIONS TO VISIBILITY.

COZ001>005-013-030-031-191000-
...NORTHWEST COLORADO...

CITY           SKY/WX    TMP DP  RH WIND       PRES   REMARKS
CRAIG          HAZE      23  17  78 CALM      30.18S VSB 3/4
HAYDEN         CLOUDY    14  10  85 S7        30.15R WCI   4
MEEKER         CLOUDY    19  16  88 CALM      30.17S FOG
MOUNT WERNER   NOT AVBL
STEAMBOAT SPGS CLOUDY    17  15  93 CALM      30.15S
WALDEN         PTCLDY     1  -6  71 CALM      30.10S
$$

COZ006>008-011-191000-
...WEST CENTRAL VALLEYS...

CITY           SKY/WX    TMP DP  RH WIND       PRES   REMARKS
GRAND JUNCTION CLOUDY    31  29  92 SE6       30.19S WCI  25
MONTROSE       CLOUDY    32  30  92 CALM      30.20S
EAGLE          CLOUDY    23  21  93 CALM      30.19S
RIFLE          CLOUDY    30  26  85 E3        30.18S
DELTA          PTCLDY    31  29  91 CALM      30.20S
NUCLA          CLOUDY    30  30 100 S3        30.22F
$$

COZ017>023-064>068-191000-
...SOUTHWEST COLORADO...

CITY           SKY/WX    TMP DP  RH WIND       PRES   REMARKS
DURANGO        PTCLDY    21  18  88 CALM      30.15R
CORTEZ         CLEAR     20  17  88 NE6       30.18S WCI  12
PAGOSA SPRINGS CLOUDY    21  20  93 CALM      30.14S
TELLURIDE      NOT AVBL
WOLF CREEK PAS PTCLDY     9   7  92 MISG      30.08S
$$

COZ009-010-012-014-032>034-037-058>063-191000-
...CENTRAL COLORADO...

CITY           SKY/WX    TMP DP  RH WIND       PRES   REMARKS
ASPEN          LGT SNOW  24  22  91 CALM      30.13S FOG
BUENA VISTA    PTCLDY    16  10  75 N7        30.09F WCI   6
COPPER MTN     CLOUDY    14   9  79 MISG      30.05F
BERTHOUD PASS  CLOUDY     5   0  78 MISG      30.03S
COTTONWOOD PAS PTCLDY    23  10  58 W6        30.06F WCI  16
GUNNISON       CLOUDY    14   9  79 CALM      30.18S
KREMMLING      CLOUDY    14  10  85 CALM      30.17S
LEADVILLE      CLOUDY    10   7  87 NE6       30.08S WCI   0
MONARCH PASS   CLOUDY    10   7  85 MISG      30.14F
SALIDA         PTCLDY    23  15  71 NW8       30.18R WCI  14
SUNLIGHT       FLURRIES N/A N/A N/A CALM      30.12S
WILKERSON PASS MOCLDY    12   5  73 W8        30.06S WCI   1
$$

COZ069>075-191000-
...SAN LUIS VALLEY/SANGRE DE CRISTO MOUNTAINS...

CITY           SKY/WX    TMP DP  RH WIND       PRES   REMARKS
ALAMOSA        FOG       11   8  88 CALM      30.12S VSB 1/4
LA VETA PASS   CLOUDY    16  14  93 S8        30.06S WCI   5
SAGUACHE       PTCLDY    21  16  79 NW10      30.12S WCI  10
$$

COZ035-036-038>040-191000-
...NORTHERN COLORADO FRONT RANGE...

CITY           SKY/WX    TMP DP  RH WIND       PRES   REMARKS
DENVER INTL AP PTCLDY    26  24  92 SW5       30.06F WCI  20
DMNS CITY PARK   N/A     25  24  96 SW2       30.07S
AURORA         PTCLDY    27  24  91 SW3       30.06F
FRONT RANGE AP CLEAR     28  27  93 W5        30.07S FOG     WCI  23
ERIE MUNI ARPT   N/A     20  19  95 SW3       30.08S
BOULDER MUN AP CLEAR     28  21  74 CALM      30.06F
CENTENNIAL     PTCLDY    24  21  88 CALM      30.05F
BROOMFIELD     CLEAR     28  25  86 CALM      30.06F
FORT COLLINS   CLEAR     27  21  80 CALM      30.08S
LONGMONT       CLEAR     21  18  88 CALM      30.09S
$$

COZ041-046-047-076>085-087-088-191000-
...PIKES PEAK/PALMER DIVIDE AND SOUTHERN FOOTHILLS...

CITY           SKY/WX    TMP DP  RH WIND       PRES   REMARKS
COLO. SPRINGS  CLOUDY    26  21  81 N6        30.08F WCI  19
A. F. ACADEMY  PTCLDY    19  16  89 N7        30.07S WCI  10
ELLICOTT       NOT AVBL
FALCON         CLOUDY    20  18  93 CALM      30.08S
FORT CARSON    CLOUDY    29  21  74 NW1       30.07F
LIMON          CLEAR     15  12  88 N8        30.09S WCI   4
MONUMENT HILL  CLEAR     23  21  93 SW7       30.05S WCI  15
TRINIDAD       PTCLDY    28  25  88 NW6       30.09R WCI  22
$$

COZ042>045-048>051-090-091-191000-
...NORTHEAST COLORADO...

CITY           SKY/WX    TMP DP  RH WIND       PRES   REMARKS
GREELEY ARPT   CLEAR     18  10  73 NW3       30.07R
AKRON          PTCLDY    24  17  74 SW9       30.07S WCI  14
BURLINGTON     CLEAR     22  18  85 W8        30.10S WCI  12
WRAY           CLEAR     17  15  89 SW5       30.10F WCI  10
STERLING       PTCLDY    18  16  93 CALM      30.09S
HOLYOKE        NOT AVBL
FORT MORGAN    PTCLDY    20  16  84 NE7       30.08F WCI  11
$$

COZ086-089-092>099-191000-
...SOUTHEAST COLORADO...

CITY           SKY/WX    TMP DP  RH WIND       PRES   REMARKS
PUEBLO         CLEAR     21  19  92 N3        30.10S
LA JUNTA       CLOUDY    31  28  89 CALM      30.10S
LAMAR          CLOUDY    26  25  96 CALM      30.10S
SPRINGFIELD      N/A     28  25  88 W5        30.09S WCI  23
$$


USA.gov is the U.S. government's official web portal to all federal, state and local government web resources and services.